Location: Starlight Observatory
(38.4029°N, 85.8936°W)
Time: 11:42:13
(UTC-04:00)

Daily predictions for brighter satellites

Satellite Brightness Start Highest point End
(mag) Time Altitude Azimuth Time Altitude Azimuth Time Altitude Azimuth
Shenzhou-11 Module 3.3 21:22:34 10° WNW 21:25:21 35° N 21:28:08 10° ENE
GPS 2-04 Rocket1 4.5 21:23:46 10° WSW 21:27:03 23° SSW 21:30:24 10° SSE
ATLAS CENTAUR R/B 3.8 21:23:33 10° SSW 21:28:58 70° ESE 21:45:17 10° NE
Cosmos 1743 3.3 21:31:01 10° N 21:34:37 38° E 21:38:10 10° SSE
CENTAUR R/B 2.8 21:30:48 10° S 21:36:09 40° ESE 21:42:11 10° NE
ATLAS CENTAUR R/B 3.1 21:32:25 10° NW 21:36:37 34° WSW 21:40:56 10° S
SJ 16-02 3.7 21:40:09 10° NE 21:40:31 10° ENE 21:40:53 10° ENE
Cosmos 1898 Rocket 3.7 21:36:24 10° N 21:41:40 60° ENE 21:46:55 10° SSE
Cosmos 2233 Rocket 4.0 21:37:26 10° S 21:43:32 70° E 21:49:42 10° NNE
Cosmos 1814 Rocket 4.2 21:38:32 10° S 21:43:33 49° ESE 21:48:39 10° NNE
Okean 1 4.0 21:45:34 10° SSW 21:49:33 57° W 21:53:34 10° N
Resurs 01 Rocket 1.7 21:46:28 10° S 21:50:52 80° WSW 21:55:17 10° NNW
ATLAS 3B R/B 4.2 21:44:33 10° WSW 21:51:19 43° NW 21:57:51 10° NNE
H-2A R/B 3.2 21:48:25 12° ESE 21:52:08 26° ENE 21:56:17 10° NNE
Meteor 2-4 Rocket 4.1 21:48:10 10° SSE 21:53:15 43° E 21:58:28 10° NNE
Cosmos 990 Rocket 4.2 21:49:11 10° N 21:54:18 55° ENE 21:58:52 13° SE
Lacrosse 5 rocket 3.2 21:55:32 10° NNW 21:58:56 22° NNE 22:02:13 10° E
Aureole 2 Rocket 3.6 21:57:18 10° NNE 21:59:34 20° ENE 22:00:42 16° E
ARGOS 3.7 21:56:26 13° SE 22:00:51 42° ENE 22:05:56 10° N
Cosmos 1939 Rocket 4.3 21:59:22 10° SSW 22:03:12 39° W 22:07:06 10° NNW
NOAA 11 4.3 21:59:18 10° SSE 22:04:46 83° WSW 22:10:15 10° NNW
Cosmos 2322 Rocket 2.2 22:01:39 10° NNW 22:07:18 82° ENE 22:12:02 15° SSE
Cosmos 1242 Rocket 2.7 22:08:13 10° NNW 22:11:52 70° W 22:15:05 12° S
CZ-4B DEB 4.4 22:12:47 17° SSE 22:15:20 84° ENE 22:18:49 10° N
SL-16 R/B 2.3 22:11:48 10° NNW 22:17:29 77° WSW 22:22:11 15° SSE
Cosmos 1340 Rocket 2.8 22:18:27 13° S 22:22:00 67° E 22:26:04 10° NNE
Cosmos 2150 Rocket 4.1 22:17:03 10° NNW 22:22:25 70° ENE 22:25:55 21° SSE
GPS 2-05 Rocket1 3.6 22:24:05 10° SW 22:26:55 29° SSE 22:26:55 29° SSE
MetOp-B 4.2 22:23:56 21° SSE 22:27:32 63° ENE 22:32:49 10° N
Cosmos 540 Rocket 3.6 22:22:41 10° S 22:27:40 53° ESE 22:32:43 10° NNE
Cosmos 1025 Rocket 4.4 22:27:28 20° E 22:28:02 21° E 22:31:18 10° NE
Spot 2 Rocket 4.4 22:25:48 10° S 22:30:36 45° W 22:35:26 10° NNW
Cosmos 2034 Rocket 4.2 22:29:18 19° SSE 22:33:35 51° E 22:39:30 10° NNE
Cosmos 2219 4.4 22:34:42 22° ESE 22:35:26 23° E 22:39:49 10° NE
Cosmos 1464 Rocket 4.0 22:30:00 10° S 22:36:20 77° E 22:42:43 10° N
Cosmos 1937 Rocket 3.9 22:32:48 10° NNW 22:37:50 57° WSW 22:41:33 18° S
SPOT 5 3.6 22:37:55 26° ESE 22:39:25 34° ENE 22:43:32 10° N
USA 245 3.6 22:38:32 35° ESE 22:39:36 48° ENE 22:43:48 10° N
Terra 3.5 22:38:20 16° E 22:39:46 19° ENE 22:43:00 10° NNE
Cosmos 1455 Rocket 3.1 22:37:28 10° N 22:41:51 81° W 22:44:20 25° S
Cosmos 2298 Rocket 4.3 22:38:23 10° NNW 22:43:38 67° WSW 22:46:58 23° S
Cosmos 841 Rocket 4.1 22:40:03 10° SSW 22:45:13 59° WNW 22:50:26 10° N
Meteor 1-15 Rocket 4.3 22:44:18 10° N 22:49:59 63° E 22:52:34 32° SSE
DELTA 2 R/B (1) 4.0 22:47:13 10° SW 22:52:16 36° SSE 22:53:20 33° SE
Helios 1A 3.3 22:51:27 39° ESE 22:52:28 48° ENE 22:56:30 10° N
Okean 2 3.6 22:52:12 43° SE 22:52:59 49° E 22:57:02 10° NNE
Cosmos 1891 Rocket 4.5 22:48:51 14° S 22:54:20 87° W 23:00:43 10° N
USA 32 4.4 22:50:36 10° NNW 22:55:46 62° W 22:59:24 19° SSW
CZ-2C R/B 4.3 22:52:46 10° NE 22:56:06 17° E 22:56:06 17° E
Cosmos 2360 Rocket 2.1 22:50:42 10° NNW 22:56:23 89° E 22:58:58 34° SSE
Cosmos 372 Rocket 4.2 22:51:48 10° N 22:56:50 54° ENE 22:58:30 37° ESE
BREEZE M DEB (TANK) 2.6 22:49:20 10° NW 22:57:40 77° SW 22:58:38 48° SE
USA 234 3.9 22:52:40 10° NE 22:59:03 57° NW 23:05:27 10° WSW
Tiangong 2 2.5 22:56:10 10° WNW 22:59:07 35° N 23:00:16 26° NE
Cosmos 2219 Rocket 3.5 22:54:52 10° N 22:59:37 28° ENE 23:01:38 22° E
Shenzhou-11 Module 2.3 22:58:34 10° WNW 23:01:05 58° W 23:01:05 58° W
Cosmos 1356 Rocket 3.5 23:05:19 53° SE 23:05:52 58° E 23:10:06 10° NNE
COSMOS 2455 4.5 23:10:58 17° E 23:10:58 17° E 23:13:34 10° ENE
ERS-1 Rocket 3.1 23:07:42 33° S 23:09:54 68° WSW 23:14:56 10° NNW
CZ-2C R/B 4.0 23:16:09 31° E 23:17:24 35° ENE 23:22:26 10° N
Helios 1B rocket 2.3 23:14:49 10° NNE 23:18:58 75° ESE 23:19:16 71° SE
SJ 16-02 1.4 23:15:13 10° NNW 23:19:40 75° WSW 23:20:26 58° S
Cosmos 2333 Rocket 3.0 23:20:54 10° N 23:26:16 40° ENE 23:27:41 34° E
CENTAUR R/B 4.0 23:21:16 10° WSW 23:26:47 36° NW 23:33:05 10° NNE
Okean 1-7 Rocket 3.8 23:27:08 53° E 23:27:08 53° E 23:31:29 10° NNE
SPOT 1/Viking Rocket 3.5 23:26:19 48° S 23:27:46 78° WSW 23:32:57 10° NNW
IGS 5A 3.5 23:28:32 64° ENE 23:28:32 64° ENE 23:32:39 10° N
COSMOS 2428 2.7 23:23:40 10° NNW 23:29:20 68° ENE 23:30:38 51° SE
H-2A R/B 3.3 23:29:03 22° SW 23:31:24 32° W 23:35:55 10° NNW
Meteor 1-29 3.7 23:28:38 10° NNE 23:31:16 49° NNE 23:31:16 49° NNE
CZ-4C R/B 3.1 23:25:16 10° NNW 23:32:33 66° NE 23:35:47 38° ESE
Cosmos 783 Rocket 4.4 23:33:59 55° S 23:35:10 82° ESE 23:40:30 10° NNE
Cosmos 1125 Rocket 3.6 23:31:48 10° NNW 23:37:02 70° WSW 23:38:03 55° SSW
Lacrosse 5 rocket 1.8 23:34:18 10° NW 23:38:05 51° WSW 23:38:05 51° WSW
Cosmos 2297 Rocket 3.3 23:44:24 29° E 23:44:24 29° E 23:48:10 10° NE
Cosmos 1092 Rocket 3.9 23:37:47 10° N 23:44:11 90° E 23:45:54 52° S
Nadezhda 4 Rocket 4.4 23:39:26 10° NNW 23:45:38 60° W 23:48:05 36° SSW
Cosmos 2227 Rocket 3.0 23:47:43 35° E 23:47:43 35° E 23:52:01 10° NE
Cosmos 2058 Rocket 4.1 23:47:11 10° N 23:50:47 36° ENE 23:50:47 36° ENE
Cosmos 2322 4.5 23:46:13 10° NW 23:51:35 42° WSW 23:52:56 36° SW
